RH
30 27 24 24 23 21 19 17 15 14 14 12 10 10 10 11 12 13 13 14 14 14 14 13 13 12 12 12 12 12 12 12 11 11 11 11 11 11 11 10 10 10 9 9 9 9 9 8 8 8 9 9 8 9 9 11 13 15 18 20 22 24 26 27 26 25 24 24 23 23 22 21 20 19 17 17 16 15 15 16 16 17 16 16 16 17 18 19 21 23 24 25 25 24 24 23 23 23 26 29 31 32 32
31 28 27 28 27 24 19 15 13 12 11 10 9 9 10 11 11 12 12 13 13 14 14 13 12 12 11 11 11 11 11 11 11 10 10 10 11 11 10 10 10 10 10 10 10 9 9 9 9 9 9 9 9 9 9 10 12 14 16 18 21 24 26 27 26 26 25 24 24 23 23 22 22 21 20 19 18 16 15 15 15 15 15 15 15 16 17 18 19 20 22 23 23 23 23 22 22 23 24 25 26 27 28
30 31 31 32 30 26 20 16 13 12 11 10 9 9 9 10 11 12 12 12 12 12 12 12 11 10 10 10 10 10 10 10 10 11 10 11 11 11 11 11 11 11 11 11 11 11 11 10 10 10 9 9 9 9 10 10 11 13 14 17 19 21 24 25 26 26 26 25 24 23 23 22 21 21 20 19 18 16 15 14 14 14 14 14 15 15 15 16 17 18 19 20 22 22 22 22 22 22 23 24 25 25 25
31 32 33 33 30 26 21 18 16 15 14 12 11 10 9 10 10 10 11 10 10 10 10 9 9 9 9 9 9 9 9 10 10 11 11 12 12 11 12 12 12 13 13 13 14 14 14 14 13 13 12 11 11 10 10 10 11 11 12 14 16 17 19 21 23 24 25 24 23 22 20 20 19 18 17 17 16 15 15 14 14 14 14 15 15 16 16 16 16 17 18 19 20 22 24 24 23 22 22 23 24 24 24
31 30 30 29 26 23 20 19 19 18 17 17 15 13 10 10 9 9 9 9 9 9 10 9 10 9 10 10 10 10 10 11 11 12 12 13 13 13 14 14 14 15 15 15 16 16 16 16 16 16 16 15 14 13 12 12 11 11 11 12 12 13 14 16 18 20 22 22 21 20 19 18 17 16 16 16 16 16 15 15 15 14 14 15 16 16 17 18 18 18 18 19 20 21 23 26 26 24 23 23 22 22 22
30 27 25 24 22 21 20 20 20 19 19 18 17 16 14 13 12 11 11 11 10 11 11 11 11 11 11 11 11 12 12 12 13 13 14 14 15 15 15 16 16 16 16 17 17 17 17 18 18 18 18 18 18 17 17 16 15 14 13 13 13 13 14 14 16 18 20 21 21 21 20 19 18 18 18 17 17 16 16 16 15 15 15 15 16 18 19 19 20 20 20 20 20 20 21 24 26 26 27 25 24 22 21
30 27 23 22 21 20 20 20 21 21 21 20 20 19 18 17 16 15 15 14 14 14 14 13 13 14 14 14 14 14 15 15 15 15 16 16 16 16 17 17 17 17 17 18 18 18 18 18 18 18 18 18 18 18 18 18 18 17 17 16 16 16 16 16 17 18 19 21 22 22 21 20 19 18 18 17 17 16 16 16 16 17 18 18 18 19 20 20 21 21 21 21 21 21 21 22 24 26 28 29 28 26 24
30 28 25 23 23 22 22 22 22 22 22 22 22 22 21 21 20 20 19 19 18 18 17 17 17 17 17 17 17 17 17 17 17 17 18 18 18 18 18 19 19 19 19 19 19 19 19 19 19 19 19 19 19 19 19 19 19 19 19 18 18 18 18 18 18 19 19 20 21 22 22 21 19 18 17 17 17 17 17 18 18 19 20 20 20 20 20 20 20 21 21 21 21 21 21 21 22 24 27 30 30 30 28
30 28 27 26 25 25 24 24 24 23 23 23 23 23 23 23 23 23 22 22 22 21 21 20 20 20 20 20 20 19 19 19 19 19 19 20 20 20 20 21 21 21 21 21 21 21 21 21 21 21 21 21 21 21 21 21 21 21 20 20 20 20 20 20 20 20 20 20 21 22 22 22 21 21 20 20 20 19 19 20 20 20 20 21 21 21 21 21 21 21 22 22 21 21 20 21 21 22 24 26 29 30 30
28 28 28 28 28 27 27 26 26 25 25 25 25 25 25 25 25 25 24 24 24 24 24 23 23 23 23 22 22 22 22 22 22 22 22 22 22 22 22 22 22 22 22 22 23 22 23 22 23 23 23 23 23 23 24 24 24 24 24 24 23 23 23 23 23 22 22 22 23 23 24 24 24 24 24 24 23 23 22 22 22 21 21 21 21 21 21 22 22 22 21 22 21 20 20 20 20 21 22 23 25 27 29
28 29 29 29 29 29 29 29 28 28 28 27 27 27 27 27 27 27 27 26 26 26 26 26 26 26 25 25 25 25 25 25 24 24 24 24 24 24 24 23 23 23 24 24 24 24 24 24 24 24 25 25 25 25 26 26 26 27 27 27 27 27 27 27 27 26 26 26 26 26 26 26 26 26 26 26 26 26 25 24 24 23 22 21 20 20 19 20 21 21 21 21 21 21 20 20 19 20 21 22 23 25 26
30 30 30 30 30 30 30 30 30 30 30 30 30 30 30 30 29 29 30 29 29 29 29 29 29 29 28 28 28 28 28 28 27 27 27 27 27 26 26 26 26 26 26 27 27 27 27 27 27 27 27 27 27 28 28 28 28 29 29 30 30 31 30 31 31 30 30 30 30 30 30 29 29 29 28 28 27 27 26 26 25 24 23 21 20 19 18 17 18 18 19 19 19 20 20 20 20 20 21 22 23 24 25
31 30 31 31 31 31 31 31 31 31 32 32 32 32 32 33 33 33 33 33 33 32 32 32 32 31 31 31 31 31 31 31 31 31 30 30 30 30 30 29 29 30 30 30 30 30 30 30 30 30 30 30 31 31 31 31 31 31 32 33 33 33 34 34 34 34 34 34 33 33 33 32 32 31 31 30 29 28 27 26 25 24 22 21 20 19 18 17 16 16 16 16 17 18 19 20 20 21 21 22 23 24 24
32 31 31 32 32 32 33 33 33 34 34 34 34 34 34 35 35 35 35 35 35 35 34 34 34 34 34 34 33 33 33 33 33 33 33 33 33 33 33 33 33 33 33 33 33 33 33 33 33 33 34 34 34 34 34 33 33 34 34 34 35 35 35 36 36 36 37 37 37 36 36 35 34 33 32 31 30 29 28 26 25 24 23 22 21 20 20 19 18 17 16 16 15 15 16 17 18 20 21 21 23 24 24
33 33 33 33 34 34 35 35 35 36 36 35 35 35 35 36 36 36 36 36 36 36 36 36 36 36 35 35 35 35 35 35 35 35 35 35 35 35 35 35 35 35 36 35 36 36 36 36 36 36 36 36 36 36 36 36 36 36 36 36 36 36 36 36 37 37 38 38 38 38 38 37 36 34 33 32 31 30 29 28 27 26 25 23 23 22 21 21 20 20 19 18 17 16 16 15 17 19 20 19 21 23 24
33 33 34 35 35 35 36 36 36 36 36 36 36 36 36 36 36 36 36 36 36 36 36 36 36 36 36 36 36 36 36 36 36 37 36 37 37 37 37 37 37 37 37 37 37 38 38 38 38 38 37 38 38 38 38 37 37 37 37 37 37 37 37 37 37 37 38 38 38 38 38 37 36 35 34 33 32 32 31 30 29 28 28 27 26 25 24 24 23 23 23 22 21 20 19 18 17 18 18 17 17 19 22
33 33 34 34 34 34 34 34 34 35 35 36 36 36 37 37 36 36 36 36 36 36 36 36 37 37 37 37 37 37 37 37 38 38 38 38 38 38 38 38 38 38 39 38 39 39 39 39 39 38 38 38 38 38 38 38 38 38 38 38 37 37 37 37 37 37 37 37 37 37 37 36 36 36 35 35 34 34 33 33 32 31 30 30 29 29 28 27 27 26 26 26 25 25 24 22 21 20 18 17 17 17 18
34 33 33 32 31 30 30 30 30 31 32 33 34 35 35 35 36 36 36 36 37 37 37 37 37 38 38 38 38 38 38 38 38 38 39 39 39 39 39 39 39 39 39 39 39 39 39 38 38 38 38 37 37 37 37 37 36 36 36 36 35 35 35 35 35 35 35 35 35 36 36 36 37 36 37 37 37 37 37 36 36 35 35 34 34 33 32 32 31 30 30 30 29 28 28 27 26 25 23 22 20 19 18
35 35 34 32 30 29 28 28 28 29 29 30 31 31 32 33 33 34 34 35 35 36 36 37 37 38 38 38 38 39 39 39 39 39 38 39 39 39 39 39 39 39 39 38 38 38 38 37 37 36 36 36 35 35 35 34 34 33 33 33 32 32 32 32 32 33 33 34 34 35 36 36 37 37 37 38 38 38 38 38 38 38 38 38 38 37 37 36 36 35 34 34 33 32 32 31 31 30 29 28 26 25 23
36 36 35 34 32 31 30 30 30 30 30 30 30 31 31 31 31 31 32 32 32 33 33 34 35 35 36 36 37 37 37 37 37 37 37 37 38 38 38 38 38 38 38 37 37 37 36 36 35 35 34 34 33 33 32 31 31 30 30 30 30 30 30 30 31 31 32 32 33 34 35 36 36 37 37 37 38 38 38 38 39 39 40 40 40 40 40 40 40 40 39 39 38 38 37 36 36 35 34 34 33 32 31
36 35 35 35 34 34 34 35 35 35 35 35 35 34 34 33 33 32 32 31 31 31 31 32 32 32 32 32 33 33 33 33 34 34 34 35 35 35 35 35 35 35 35 35 35 34 34 34 34 33 32 32 31 31 30 30 29 29 29 28 29 29 29 30 30 31 31 32 33 33 34 35 35 36 37 37 37 38 38 39 39 40 41 41 41 41 42 42 42 42 42 42 42 42 42 41 41 40 39 39 39 38 37
35 35 35 36 37 38 38 39 39 39 39 39 39 39 38 37 37 36 35 34 34 33 33 33 33 32 32 31 31 31 31 31 32 32 32 32 32 32 32 32 32 32 32 32 32 32 32 31 31 31 31 30 30 30 30 29 29 29 29 29 29 29 29 30 30 31 32 32 33 33 33 34 35 35 36 37 38 38 39 39 40 40 40 41 41 42 43 43 43 42 43 43 43 43 44 44 44 44 43 43 42 42 41
36 36 37 38 39 40 41 42 42 42 42 42 42 41 41 40 39 39 38 38 38 38 38 37 37 36 36 35 35 34 34 33 33 33 32 32 31 31 31 30 30 30 30 30 30 30 30 30 30 30 30 30 30 30 30 30 30 30 30 30 30 29 30 30 30 31 32 32 32 33 34 34 35 35 36 37 38 39 39 40 40 40 40 41 42 42 43 43 43 43 43 43 43 44 44 44 45 45 45 44 44 43 43
37 38 39 40 41 42 43 43 44 44 43 43 43 43 42 41 41 41 40 40 40 40 40 39 39 38 38 38 38 38 37 36 36 35 34 33 33 32 31 31 30 30 30 29 29 29 29 29 29 29 30 30 30 30 30 30 30 30 30 30 30 30 30 30 31 31 32 32 33 33 34 35 36 36 37 38 38 39 39 40 40 40 40 41 41 41 41 41 42 43 43 43 43 43 44 44 45 46 47 46 46 45 44
39 40 41 41 42 43 43 44 44 44 44 44 44 43 43 42 42 42 41 41 41 41 40 39 39 38 39 39 38 38 38 37 36 36 35 34 33 32 31 31 30 29 28 28 28 28 28 29 29 29 29 30 30 30 30 30 30 30 30 31 31 31 31 31 32 32 33 33 34 34 35 36 37 37 38 39 39 39 40 40 40 40 39 39 39 39 39 39 40 41 41 41 42 43 44 45 46 47 48 48 48 48 48
39 40 42 42 43 43 44 44 45 44 44 44 44 44 44 43 42 42 42 41 41 41 39 38 37 37 37 37 37 36 36 35 34 34 33 31 30 29 28 27 27 26 26 26 26 27 27 28 28 29 29 29 30 30 30 31 31 31 32 32 32 33 33 34 34 34 35 35 35 36 36 37 38 38 39 39 39 39 40 40 40 39 39 38 38 38 38 37 37 37 38 39 40 41 42 44 45 46 47 48 49 49 49
41 41 42 43 43 44 45 45 45 45 45 45 45 44 44 43 42 42 42 41 41 39 37 36 36 36 35 35 35 34 34 33 31 30 28 27 26 25 25 25 25 26 26 26 27 28 28 29 29 30 30 30 31 31 32 32 33 33 34 34 34 35 35 35 36 36 37 37 37 38 38 38 39 39 40 39 40 40 40 39 39 39 39 39 38 37 36 36 35 35 36 36 36 36 37 37 38 39 40 42 43 45 46
42 43 43 44 44 45 45 46 46 46 45 45 45 44 43 42 42 42 41 41 40 38 35 35 34 34 34 34 33 33 32 31 29 27 25 25 24 24 24 25 26 27 28 29 30 30 31 31 31 32 32 33 33 34 34 35 35 35 35 36 36 36 36 37 37 37 38 38 38 38 38 38 39 39 39 39 39 39 39 38 39 39 39 39 38 37 37 36 35 34 33 33 32 31 31 31 32 32 33 34 35 37 39
44 44 44 44 44 45 46 46 46 46 45 45 44 44 42 41 41 41 40 39 37 35 34 34 34 34 33 33 32 31 31 29 28 26 25 24 25 25 26 27 28 29 30 31 31 32 32 32 33 33 34 35 35 36 36 36 37 37 36 36 36 36 36 36 37 37 37 37 38 38 38 38 37 37 37 38 38 38 37 38 38 38 38 37 37 37 37 36 35 33 31 30 29 29 29 29 29 29 30 30 31 31 33
45 45 44 44 45 45 46 46 46 46 45 45 44 43 41 40 39 39 38 36 34 33 33 33 33 33 32 31 30 29 29 27 26 25 25 25 25 25 26 27 28 29 31 32 32 32 33 33 33 34 35 36 36 36 37 37 36 36 36 36 36 35 35 35 36 36 36 36 36 36 36 35 35 35 35 35 35 35 35 36 36 37 37 37 36 36 36 34 33 31 29 29 28 28 28 28 28 28 28 30 30 30 30
46 45 45 45 45 46 46 46 46 45 44 43 43 42 40 39 38 37 36 34 33 33 33 32 32 31 29 28 27 26 26 25 25 25 25 25 26 26 26 27 28 30 31 32 32 33 34 34 34 35 35 36 36 36 36 36 36 35 35 35 34 34 34 33 34 33 33 33 33 33 33 33 33 32 32 32 32 31 32 32 33 34 35 35 35 35 35 34 32 31 30 30 29 29 28 28 28 28 28 29 29 30 29
46 46 46 46 46 46 46 45 45 44 43 42 41 40 38 37 37 36 35 34 33 33 32 31 30 29 28 26 24 24 24 24 24 25 25 26 26 26 27 28 29 30 31 32 33 34 34 34 35 35 35 36 36 36 36 35 35 34 34 33 33 32 32 32 31 31 31 31 31 30 30 30 30 29 29 28 28 29 29 31 32 32 33 34 34 35 35 34 34 33 32 32 31 31 30 30 29 29 28 28 28 28 29
46 46 46 47 47 47 46 44 43 43 42 41 39 38 36 36 35 35 34 33 32 32 31 30 29 28 26 24 22 22 22 24 25 26 26 27 27 28 28 30 30 31 31 32 33 33 34 34 34 35 35 35 35 34 34 33 33 32 31 30 30 30 29 29 29 29 29 28 28 28 27 27 27 26 26 26 26 27 29 30 32 33 33 34 34 35 35 34 33 33 33 34 35 35 34 34 33 32 31 30 30 30 30
47 46 47 47 47 46 45 43 42 41 40 39 37 36 34 35 34 34 33 32 31 30 29 28 27 26 24 23 22 22 23 25 26 26 26 26 27 28 29 30 31 31 32 32 33 33 33 33 33 33 33 33 32 32 31 31 30 29 28 28 28 28 27 27 27 26 26 26 25 25 25 25 24 24 24 25 27 29 32 36 37 37 36 38 38 38 37 33 32 32 34 35 36 36 37 38 37 37 36 35 35 34 34
47 48 48 47 46 45 43 41 40 39 37 36 34 33 33 33 33 32 31 30 29 28 27 26 25 24 23 23 22 23 24 24 25 25 26 26 26 26 28 29 30 31 31 31 31 31 31 31 30 30 30 29 29 28 27 27 27 26 26 26 26 26 25 25 24 24 23 23 23 23 23 22 23 23 24 25 28 30 31 32 34 35 36 37 38 38 37 32 31 33 36 36 36 37 38 38 39 39 38 38 38 38 38
49 49 49 47 45 43 41 38 36 34 33 32 31 31 32 31 31 30 29 28 27 25 24 23 23 23 22 23 23 24 24 24 24 24 25 25 25 26 27 28 29 29 30 30 29 28 28 28 27 26 26 25 25 24 24 24 24 24 24 24 24 23 23 22 22 22 22 21 21 21 21 22 22 23 24 25 27 28 28 30 30 31 31 32 32 32 32 30 30 31 33 35 35 36 37 38 38 39 39 38 38 38 38
50 49 48 45 43 41 38 33 30 28 28 28 29 29 30 29 28 27 26 25 23 22 21 22 22 22 23 24 24 25 24 24 25 25 25 25 26 26 27 27 27 27 27 26 25 24 23 23 22 21 21 21 21 21 21 22 22 23 22 22 22 21 21 20 20 21 20 21 21 21 21 21 22 22 23 23 24 24 25 26 26 26 26 26 27 27 26 25 26 26 27 28 30 32 34 36 38 39 39 38 38 38 37
49 47 45 42 39 36 31 28 26 26 26 27 27 27 27 26 25 24 23 22 21 21 21 22 22 23 24 24 24 25 25 25 25 25 25 25 25 25 25 25 24 24 23 22 21 20 19 18 18 18 18 18 19 19 20 20 20 20 20 20 20 20 20 20 20 20 20 20 20 20 20 21 21 21 20 20 21 21 23 24 24 25 25 24 24 23 22 21 21 20 20 21 23 25 28 30 33 35 37 38 38 38 38
47 44 41 36 32 28 27 27 27 26 26 26 26 25 25 24 23 22 21 21 21 21 21 22 23 24 24 24 24 24 24 24 25 25 25 25 24 23 22 22 21 20 19 18 17 17 16 16 16 16 17 18 18 19 19 19 18 18 19 19 19 19 19 19 19 19 19 19 19 20 20 19 19 18 18 18 18 19 20 22 24 27 28 28 27 26 24 21 19 18 18 18 19 20 21 23 26 29 32 35 37 39 39
43 39 34 30 29 29 29 28 28 27 26 25 25 24 23 23 22 22 21 21 21 21 22 23 23 24 24 24 24 24 24 24 24 23 23 22 21 20 19 19 18 17 17 17 16 16 16 16 16 16 17 17 17 17 17 17 18 18 18 18 18 18 19 18 18 18 18 18 18 19 19 18 18 18 17 17 17 17 17 19 21 24 27 31 33 31 27 23 21 20 18 18 18 19 19 20 22 23 26 29 33 35 37
37 33 30 31 31 31 30 30 29 27 26 25 24 23 22 22 22 22 22 22 22 22 22 22 23 24 24 23 23 23 22 22 22 21 20 20 19 18 18 17 17 17 17 16 16 16 16 16 16 16 17 17 17 17 17 17 17 17 18 18 18 18 18 18 17 18 18 18 18 18 18 18 18 18 17 17 17 17 16 16 17 18 21 24 25 24 22 22 21 20 20 19 19 19 20 20 21 21 22 24 26 29 31
32 32 32 32 32 32 32 31 30 28 27 25 24 23 22 22 22 22 23 23 23 23 23 23 23 23 23 22 22 22 21 21 20 20 19 19 18 18 18 17 17 17 17 17 16 16 16 16 17 17 17 17 17 17 17 17 17 17 17 17 17 17 17 17 17 17 17 17 17 17 17 17 17 17 17 17 17 16 16 16 16 17 17 17 16 16 18 19 19 19 19 19 19 19 20 20 20 21 21 22 23 24 26
33 34 34 34 34 34 33 32 30 28 27 25 24 23 22 22 22 22 23 23 24 24 23 23 23 22 22 22 21 21 20 20 20 19 19 19 18 18 17 17 17 17 16 16 16 16 16 16 16 17 17 17 16 16 16 16 16 16 16 16 16 17 17 17 17 17 17 17 16 16 16 16 16 16 16 16 16 15 15 15 15 16 17 16 16 16 16 16 16 16 16 16 16 17 18 18 19 19 19 20 21 22 22
35 36 36 36 35 35 34 32 30 29 27 25 24 23 22 22 22 23 23 24 24 24 24 23 22 22 22 21 21 20 20 20 20 19 19 18 18 17 17 17 16 17 16 16 16 16 15 16 16 17 17 16 16 16 16 16 16 16 16 16 16 16 16 16 16 16 16 16 15 15 15 15 14 14 14 14 14 13 13 13 13 13 13 13 13 13 12 12 12 11 11 12 13 14 14 15 16 17 18 19 19 20 20
37 38 37 37 37 36 34 32 30 28 27 25 24 23 23 23 23 23 24 24 24 24 24 23 22 22 21 21 20 20 20 20 19 19 19 18 18 17 17 16 16 16 16 16 15 15 15 15 16 16 16 16 16 16 16 16 16 16 16 16 16 16 16 16 15 15 15 14 14 14 13 13 13 12 12 12 12 12 11 11 11 11 11 11 10 10 10 10 10 9 9 9 9 10 10 11 13 15 17 18 18 18 18
39 39 39 39 38 37 35 33 30 28 26 25 24 23 23 23 23 24 24 24 24 24 24 23 22 22 21 20 20 20 19 19 19 19 18 18 17 17 16 16 16 16 16 16 15 14 14 15 16 16 16 16 16 16 16 16 16 16 16 15 15 15 15 14 14 14 13 13 12 12 12 12 11 11 11 11 11 11 11 11 11 11 10 10 10 10 10 10 10 10 9 9 9 9 9 10 12 13 15 16 17 18 18
41 41 41 40 39 37 35 32 30 27 25 23 23 22 23 23 23 24 24 24 23 23 23 22 22 21 21 20 20 19 19 19 19 18 18 18 17 17 16 16 16 16 16 15 15 14 14 15 16 16 16 16 16 16 16 15 15 15 15 14 14 13 13 13 13 12 12 12 12 12 12 12 12 12 12 12 12 12 12 13 12 12 12 12 12 12 11 11 11 10 10 10 10 10 10 11 11 12 13 14 15 16 18
42 42 42 40 39 36 33 31 28 26 23 22 22 22 22 22 23 23 23 23 23 23 22 21 21 21 20 20 20 19 19 19 18 18 18 17 17 16 16 16 16 16 16 15 15 14 14 15 16 16 16 16 15 15 14 14 13 13 13 13 13 13 13 13 13 13 13 13 13 13 13 13 13 13 13 14 14 14 14 14 14 13 13 13 12 12 11 11 11 11 11 11 11 12 12 12 12 13 13 14 15 16 17
42 41 41 39 36 34 30 28 25 23 21 21 20 21 21 22 22 23 23 22 22 22 21 21 20 20 20 20 19 19 19 18 18 18 17 17 16 16 16 16 16 16 16 15 15 14 14 15 16 16 15 14 14 13 13 13 13 13 13 13 13 13 14 14 14 14 14 14 14 14 14 14 14 14 14 14 14 14 14 14 13 13 13 12 12 12 12 12 12 12 12 13 13 13 14 15 15 16 16 17 18 18 19
40 39 37 35 32 30 27 24 23 21 20 20 20 21 21 22 22 22 22 22 22 21 21 20 20 20 20 19 19 19 18 18 18 17 17 16 16 16 16 16 16 16 16 15 15 15 15 15 16 15 15 14 13 13 14 14 14 14 15 15 15 15 15 15 15 15 14 14 14 14 14 14 14 14 14 14 14 14 13 13 13 13 13 12 12 13 13 13 13 13 13 14 14 15 15 16 16 17 18 20 20 21 22
37 35 33 30 27 25 23 21 20 20 19 20 20 21 21 22 22 22 22 21 21 21 20 20 20 20 19 19 19 18 18 17 17 16 16 16 16 16 17 17 16 16 16 15 15 15 16 16 16 16 15 14 14 15 15 15 16 16 16 16 16 15 15 15 15 15 15 15 15 15 15 15 15 14 14 14 14 14 13 13 13 13 13 13 13 14 14 14 14 14 15 15 15 16 16 16 16 17 18 20 21 22 23
32 30 28 25 23 22 21 20 20 20 20 20 21 21 22 22 22 22 21 21 20 20 20 19 19 19 19 18 18 18 17 17 16 16 16 16 16 16 17 17 17 17 17 16 16 16 16 16 16 16 15 15 16 16 16 17 17 17 16 16 16 16 16 16 16 16 16 16 16 16 15 15 15 14 14 14 14 14 14 14 14 14 14 14 14 14 15 15 15 15 15 16 16 16 16 16 17 17 18 19 20 21 23
28 26 24 22 20 20 20 20 20 20 21 21 22 22 22 22 22 21 21 20 20 19 19 19 19 19 18 18 18 17 17 16 16 16 16 16 16 16 17 17 18 18 18 18 17 17 17 17 17 17 17 17 17 17 17 17 17 17 17 17 17 17 17 17 17 17 17 16 16 16 15 15 15 15 15 15 15 14 14 14 14 15 15 15 15 15 15 16 16 16 16 16 16 16 16 17 17 17 18 19 20 21 22
24 23 21 20 20 20 20 20 21 21 22 22 23 23 23 22 21 21 20 20 19 19 19 19 18 18 18 17 17 16 16 16 16 16 16 16 16 17 18 18 18 18 18 18 18 17 17 18 18 18 18 18 18 18 18 18 17 17 17 17 17 17 17 17 17 17 17 17 16 16 16 16 15 15 15 15 15 15 15 15 15 15 16 16 16 16 16 16 16 16 17 17 17 17 17 17 17 17 17 18 18 19 19
22 21 20 20 20 20 21 22 22 23 23 23 23 23 22 22 21 20 19 19 19 18 18 18 18 17 17 17 17 16 16 16 16 16 16 16 17 17 19 19 19 19 19 19 18 18 18 19 19 19 18 18 18 18 17 18 18 18 18 18 18 18 18 18 18 17 17 17 17 17 16 16 16 16 16 16 16 16 16 16 16 16 16 17 16 17 17 17 17 17 17 17 17 17 17 17 17 17 17 18 18 19 19
20 20 20 20 20 21 22 23 24 24 24 24 24 23 22 21 20 19 19 18 18 18 18 18 18 17 17 17 17 16 16 16 16 16 16 16 17 17 18 18 19 20 20 19 19 19 20 20 20 19 18 18 18 18 18 18 18 18 18 18 18 18 18 18 18 18 18 18 17 17 17 17 17 17 17 17 17 17 17 17 17 17 17 17 17 17 17 17 17 17 17 17 17 17 17 17 17 17 18 19 20 20 21
20 20 20 21 21 22 23 24 25 25 25 24 24 23 22 21 20 19 19 18 18 18 18 18 17 17 17 17 17 17 17 16 16 16 16 16 17 17 17 18 19 20 21 21 21 21 20 21 20 19 18 18 18 18 18 18 19 19 19 19 19 19 19 19 19 19 18 18 18 18 18 18 18 18 18 18 17 18 18 17 18 17 17 17 17 17 17 17 17 17 17 17 17 17 17 17 17 18 19 20 21 22 22
20 20 21 22 23 24 25 26 26 26 25 25 24 23 21 20 20 19 19 18 18 18 18 18 18 18 17 17 17 17 17 17 16 16 16 16 17 17 17 17 18 18 19 20 21 21 22 21 21 20 19 19 19 19 19 19 19 19 19 19 20 20 20 20 19 19 19 19 19 19 19 19 19 18 18 18 18 18 18 18 18 18 17 17 17 17 16 16 16 16 16 17 17 17 17 17 17 18 19 20 20 21 21
21 22 22 23 25 26 26 27 27 26 26 25 24 22 21 20 20 19 19 18 18 18 18 18 18 18 18 18 18 17 17 17 16 16 16 16 16 17 17 17 18 18 18 19 20 21 22 22 22 21 21 20 20 19 19 19 20 20 20 20 20 20 20 20 20 20 20 20 20 20 19 19 19 19 19 19 19 19 19 19 18 18 17 17 17 16 16 16 16 16 16 17 17 17 17 16 16 17 17 18 18 18 18
22 23 24 26 26 27 27 27 27 26 25 24 23 22 21 20 20 19 18 18 18 19 19 19 19 19 18 18 18 17 17 17 16 16 16 16 16 17 17 18 18 18 19 20 20 21 22 22 23 22 22 22 21 20 19 20 20 20 20 21 21 21 21 21 21 21 21 21 20 20 20 20 20 20 20 20 20 19 19 18 18 17 17 17 17 16 16 16 16 16 16 16 16 16 16 15 15 15 15 15 15 15 16
24 26 27 28 28 28 28 27 27 26 25 24 23 22 21 20 19 19 19 19 19 19 20 20 20 19 19 18 18 17 17 17 17 16 17 17 17 17 18 19 19 20 20 21 21 22 22 23 23 23 23 23 22 21 21 20 20 20 21 21 21 21 21 21 21 21 21 21 21 20 20 20 20 20 20 20 20 19 19 18 18 17 16 16 16 16 16 16 16 16 16 15 15 15 14 14 14 13 13 13 13 13 14